Precipitable_Water
1.00 1.05 1.00 0.98 1.07 1.15 1.20 1.28 1.30 1.28 1.26 1.26 1.29 1.24 1.27 1.24 1.20 1.19 1.23 1.22 1.26 1.24 1.23 1.21 1.23 1.15 1.08 1.10 1.10 0.96 0.95 1.04 1.13 1.18 1.17 0.96 0.93 0.91 0.92 0.95 0.93 0.95 0.98
1.03 1.05 0.97 0.91 0.97 1.03 1.16 1.20 1.25 1.21 1.20 1.22 1.22 1.22 1.27 1.25 1.21 1.18 1.15 1.11 1.14 1.17 1.17 1.15 1.16 1.08 1.00 1.07 1.02 1.00 1.02 1.06 1.11 1.11 1.09 0.99 0.96 0.95 0.96 0.95 0.90 0.91 0.92
1.03 1.02 0.95 0.88 0.91 0.93 1.00 1.08 1.16 1.18 1.12 1.10 1.13 1.20 1.26 1.23 1.19 1.20 1.20 1.12 1.09 1.11 1.11 1.13 1.07 1.02 0.96 0.97 0.99 1.02 1.05 1.03 1.02 1.02 1.02 1.01 0.96 0.95 0.98 1.01 1.00 0.97 0.97
1.12 1.04 0.94 0.88 0.88 0.92 0.97 1.02 1.08 1.09 1.09 1.13 1.13 1.18 1.18 1.17 1.19 1.19 1.16 1.14 1.11 1.06 1.02 1.01 0.99 0.94 0.94 0.97 1.00 1.00 1.01 0.99 0.95 0.92 0.91 0.93 0.92 0.93 0.94 0.98 1.00 1.00 1.00
1.15 1.10 0.91 0.86 0.89 0.91 0.95 0.95 1.00 1.06 1.12 1.12 1.11 1.11 1.12 1.16 1.18 1.15 1.09 1.11 1.07 1.03 0.98 0.90 0.91 0.89 0.91 0.93 0.95 0.94 0.95 0.94 0.89 0.86 0.87 0.90 0.93 0.95 0.97 1.00 0.99 1.00 1.01
1.19 1.14 0.95 0.89 0.89 0.91 0.88 0.89 0.96 1.02 1.04 1.03 1.07 1.11 1.14 1.16 1.16 1.11 1.00 1.00 1.01 0.98 0.96 0.89 0.87 0.84 0.86 0.88 0.87 0.85 0.84 0.83 0.82 0.81 0.81 0.86 0.90 0.92 0.95 0.96 0.97 0.97 0.98
1.19 1.14 1.06 0.99 0.94 0.88 0.87 0.89 0.93 0.96 0.97 0.99 1.05 1.11 1.16 1.17 1.16 1.12 0.98 0.96 0.96 0.93 0.90 0.91 0.87 0.82 0.81 0.81 0.79 0.80 0.74 0.73 0.74 0.74 0.78 0.83 0.86 0.91 0.94 0.94 0.94 0.95 0.95
1.29 1.22 1.18 1.13 1.04 0.94 0.89 0.89 0.91 0.96 0.98 1.00 1.04 1.10 1.14 1.18 1.14 1.10 1.05 0.98 0.95 0.92 0.88 0.87 0.86 0.81 0.83 0.82 0.83 0.83 0.85 0.86 0.83 0.80 0.76 0.77 0.82 0.88 0.93 0.93 0.91 0.93 0.95
1.46 1.39 1.32 1.33 1.29 1.12 0.99 0.93 0.93 0.94 0.98 1.01 1.03 1.05 1.10 1.16 1.16 1.10 1.06 1.04 0.97 0.92 0.86 0.84 0.85 0.87 0.88 0.89 0.91 0.88 0.89 0.86 0.82 0.85 0.85 0.83 0.80 0.86 0.95 0.97 0.94 0.92 0.94
1.44 1.46 1.44 1.41 1.38 1.36 1.27 1.12 1.01 0.97 0.97 0.98 1.00 1.02 1.04 1.07 1.11 1.14 1.13 1.04 1.01 0.95 0.88 0.84 0.85 0.91 0.92 0.92 0.94 0.95 0.92 0.85 0.88 0.90 0.92 0.97 0.94 0.92 0.99 1.03 1.00 0.93 0.92
1.26 1.28 1.34 1.39 1.47 1.42 1.41 1.34 1.25 1.14 1.05 1.00 0.98 0.98 0.99 1.02 1.03 1.01 1.03 1.05 1.02 0.97 0.92 0.88 0.86 0.91 0.92 0.92 0.92 0.98 0.93 0.88 0.88 0.90 0.94 0.99 1.05 1.09 1.08 1.10 1.10 1.04 0.95
1.11 1.24 1.32 1.35 1.39 1.51 1.44 1.43 1.39 1.32 1.26 1.19 1.08 1.01 0.99 0.98 0.97 0.98 0.98 0.95 0.99 0.98 0.95 0.94 0.92 0.88 0.90 0.90 0.88 0.88 0.92 0.92 0.90 0.91 0.96 0.97 1.05 1.14 1.19 1.21 1.15 1.10 1.04
1.05 1.12 1.22 1.30 1.46 1.60 1.56 1.51 1.43 1.41 1.34 1.28 1.25 1.18 1.08 1.02 0.99 0.94 0.95 0.95 0.96 0.95 0.94 0.92 0.93 0.93 0.87 0.84 0.80 0.82 0.83 0.88 0.89 0.93 0.97 0.97 1.04 1.13 1.21 1.24 1.24 1.14 1.09
0.91 1.01 1.13 1.25 1.40 1.47 1.58 1.67 1.65 1.51 1.42 1.37 1.33 1.30 1.23 1.12 1.02 0.98 0.92 0.89 0.89 0.90 0.86 0.90 0.87 0.89 0.88 0.86 0.81 0.73 0.76 0.80 0.85 0.92 0.98 1.00 1.05 1.15 1.21 1.24 1.26 1.19 1.13
0.71 0.76 0.87 1.03 1.20 1.34 1.45 1.62 1.67 1.66 1.62 1.52 1.42 1.39 1.34 1.24 1.15 1.10 1.01 0.98 0.91 0.89 0.84 0.80 0.82 0.82 0.84 0.85 0.83 0.76 0.68 0.69 0.77 0.85 0.91 0.99 1.06 1.14 1.19 1.22 1.25 1.24 1.18
0.69 0.71 0.77 0.79 0.91 1.12 1.28 1.38 1.51 1.69 1.75 1.67 1.60 1.49 1.42 1.38 1.30 1.21 1.15 1.07 1.02 0.97 0.90 0.85 0.79 0.76 0.77 0.81 0.81 0.83 0.77 0.69 0.66 0.73 0.83 0.92 1.03 1.13 1.19 1.22 1.25 1.24 1.23
0.61 0.65 0.68 0.73 0.80 0.84 0.99 1.20 1.35 1.50 1.59 1.70 1.77 1.59 1.52 1.46 1.42 1.36 1.26 1.17 1.12 1.09 1.02 0.96 0.89 0.83 0.75 0.75 0.72 0.77 0.80 0.81 0.75 0.69 0.75 0.86 0.96 1.05 1.14 1.15 1.19 1.22 1.21
0.53 0.54 0.59 0.66 0.72 0.79 0.85 0.93 1.10 1.25 1.45 1.56 1.67 1.77 1.62 1.50 1.47 1.43 1.37 1.29 1.25 1.20 1.12 1.04 0.94 0.86 0.80 0.74 0.69 0.68 0.71 0.74 0.76 0.75 0.76 0.77 0.87 0.94 1.00 1.03 1.07 1.12 1.14
0.51 0.52 0.53 0.56 0.60 0.68 0.79 0.87 0.96 1.14 1.32 1.45 1.55 1.65 1.72 1.63 1.51 1.46 1.42 1.38 1.39 1.29 1.20 1.12 1.04 0.99 0.87 0.86 0.83 0.80 0.77 0.72 0.69 0.70 0.70 0.72 0.75 0.78 0.82 0.83 0.86 0.90 1.01
0.45 0.46 0.47 0.50 0.55 0.60 0.67 0.75 0.88 0.98 1.10 1.21 1.28 1.37 1.57 1.70 1.70 1.53 1.46 1.43 1.40 1.29 1.25 1.20 1.10 1.07 0.98 0.93 0.92 0.88 0.89 0.89 0.85 0.74 0.69 0.70 0.72 0.74 0.77 0.78 0.81 0.85 0.87
0.45 0.44 0.43 0.44 0.48 0.51 0.55 0.57 0.64 0.76 0.91 1.02 1.10 1.16 1.29 1.45 1.61 1.70 1.57 1.46 1.48 1.41 1.35 1.25 1.21 1.12 1.06 1.08 0.97 0.89 0.96 0.96 0.92 0.89 0.84 0.79 0.82 0.84 0.83 0.85 0.89 0.91 0.92
0.46 0.46 0.45 0.44 0.46 0.48 0.52 0.59 0.65 0.69 0.80 0.89 1.00 1.06 1.13 1.25 1.37 1.52 1.60 1.63 1.61 1.48 1.40 1.36 1.24 1.13 1.15 1.19 0.99 0.94 0.76 0.81 0.90 0.90 0.91 0.86 0.84 0.91 0.90 0.93 0.92 0.92 0.91
0.39 0.43 0.46 0.48 0.48 0.49 0.50 0.52 0.55 0.62 0.69 0.70 0.80 0.90 1.02 1.13 1.21 1.31 1.45 1.48 1.54 1.63 1.59 1.53 1.44 1.28 1.15 1.24 1.22 1.06 0.87 0.75 0.82 0.93 0.94 0.95 0.93 0.93 0.94 0.96 0.92 0.92 0.94
0.36 0.38 0.39 0.47 0.50 0.52 0.53 0.52 0.49 0.48 0.46 0.53 0.67 0.76 0.87 0.98 1.04 1.14 1.24 1.33 1.41 1.43 1.46 1.58 1.65 1.53 1.40 1.22 1.30 1.27 1.24 1.15 0.96 0.84 1.03 1.08 1.10 1.08 1.06 1.05 1.03 1.01 0.99
0.37 0.37 0.38 0.39 0.40 0.47 0.52 0.53 0.52 0.51 0.53 0.54 0.56 0.59 0.71 0.84 0.95 1.02 1.09 1.15 1.23 1.28 1.39 1.37 1.45 1.53 1.61 1.44 1.36 1.30 1.25 1.23 1.24 1.09 0.90 1.02 1.14 1.15 1.18 1.17 1.16 1.14 1.12
0.34 0.33 0.33 0.34 0.35 0.37 0.39 0.46 0.51 0.52 0.51 0.53 0.55 0.56 0.58 0.63 0.78 0.90 0.99 1.06 1.12 1.15 1.22 1.29 1.35 1.34 1.39 1.40 1.49 1.54 1.46 1.30 1.22 1.23 1.08 1.07 1.09 1.13 1.21 1.23 1.20 1.19 1.18
Wind_Speed
6 7 8 8 8 9 10 10 10 10 10 10 10 10 10 11 11 11 12 12 13 13 13 14 15 16 17 17 18 19 19 18 17 16 16 15 14 13 13 12 12 11 11
8 8 8 8 8 8 9 9 9 9 9 9 9 9 10 10 10 11 11 11 12 12 13 13 14 15 16 17 17 17 16 16 15 14 14 13 12 12 11 11 11 11 11
8 8 8 8 8 8 8 8 9 9 9 9 9 9 9 9 9 10 10 10 11 11 12 13 13 14 15 15 15 15 14 13 13 12 11 10 10 10 10 10 10 10 10
8 8 8 8 8 8 8 8 8 8 8 8 8 8 8 9 9 9 9 9 10 11 11 12 13 13 14 14 13 13 12 11 11 10 9 9 9 9 9 9 9 9 9
8 8 7 8 7 7 7 7 8 8 8 7 8 8 8 8 8 7 7 8 9 10 11 11 12 12 12 12 12 11 10 10 10 9 8 8 8 8 8 8 8 8 7
7 7 7 7 7 7 7 7 7 7 7 7 7 7 7 7 7 6 7 7 8 10 10 11 11 11 11 11 10 9 9 8 8 7 7 7 6 6 6 6 6 5 5
6 6 6 6 5 6 6 6 6 6 6 7 7 7 6 6 6 6 6 7 8 9 10 10 10 10 10 9 9 8 7 7 6 6 5 4 4 4 4 4 3 3 3
5 5 4 4 4 4 5 5 5 6 6 6 6 6 6 6 6 6 6 7 7 8 10 10 10 10 9 9 8 7 7 6 5 5 4 4 3 3 2 2 1 1 0
5 5 4 4 4 4 4 4 5 5 6 6 6 6 6 6 6 6 6 7 7 8 10 11 11 11 10 9 9 8 7 7 6 6 5 5 4 4 3 3 3 3 3
4 4 6 6 5 6 5 5 6 6 6 7 7 7 7 7 7 7 8 8 9 9 10 11 12 12 12 11 10 10 10 9 9 8 7 7 7 7 6 6 6 6 6
5 5 7 8 9 9 8 8 8 8 8 8 8 9 9 9 9 9 9 9 10 11 12 12 13 14 14 14 13 13 13 12 12 11 10 10 10 10 10 9 9 9 9
5 7 9 10 11 12 12 12 11 11 11 11 10 11 11 11 11 11 11 11 12 12 13 14 15 16 16 16 16 16 16 15 15 14 14 13 13 13 14 13 13 12 12
7 8 9 11 13 15 15 15 15 14 14 14 14 13 13 13 13 13 13 14 14 14 15 16 17 18 18 18 19 19 19 19 18 18 17 16 16 16 16 17 16 15 15
9 10 11 12 13 15 16 18 18 18 18 18 17 17 16 16 16 16 16 16 16 17 17 18 18 19 20 21 21 21 22 22 21 21 20 19 19 18 18 18 19 19 18
11 12 12 13 14 16 17 18 20 21 21 22 21 20 20 20 19 19 19 19 19 19 19 20 20 21 22 22 23 23 24 24 24 24 23 23 22 21 20 20 21 21 21
14 14 15 15 15 16 17 20 20 22 22 23 25 25 25 24 23 23 22 22 22 22 22 22 22 22 23 24 24 25 26 26 26 27 26 26 25 25 24 23 23 24 24
17 18 18 18 19 19 18 20 22 23 24 25 25 27 28 28 28 27 26 25 25 25 25 25 25 25 25 25 26 27 28 28 28 29 29 28 28 28 27 27 26 26 27
18 20 21 22 22 22 22 22 22 24 26 27 27 28 29 30 31 31 30 29 29 28 28 28 27 27 27 27 28 29 29 30 30 31 31 32 31 31 30 30 30 29 29
21 22 22 23 25 25 25 26 25 25 25 28 29 29 30 32 33 33 33 33 33 32 31 31 30 30 30 30 30 31 31 31 32 32 33 33 33 33 32 32 32 32 31
20 22 23 24 25 26 27 27 28 28 27 27 27 28 31 32 34 35 35 35 35 35 35 34 34 34 33 33 33 33 33 33 33 33 34 34 34 34 34 34 33 32 33
19 21 22 24 25 26 27 28 29 30 31 31 30 29 31 32 33 36 37 37 37 37 37 37 37 37 36 35 37 36 37 37 37 36 35 35 35 35 35 35 35 34 33
19 21 22 23 24 25 26 27 28 30 32 33 34 33 31 32 33 33 35 37 38 39 39 39 39 39 39 38 38 38 38 38 37 37 37 37 36 36 35 34 34 34 34
18 20 21 22 23 23 24 26 27 28 29 31 33 35 36 34 33 34 35 35 37 38 40 41 42 43 42 42 41 40 38 37 36 36 37 37 36 36 35 36 36 35 36
17 18 19 20 21 22 23 24 25 27 29 31 33 34 35 36 36 36 36 36 35 36 38 38 40 44 47 46 44 45 47 46 43 43 41 39 39 40 39 39 40 39 39
15 17 19 20 20 21 21 22 23 24 27 29 31 32 34 35 36 37 37 38 38 37 38 38 40 40 36 43 47 48 48 49 50 49 47 45 44 43 42 42 42 42 42
14 16 18 18 19 20 20 21 23 24 25 27 29 31 33 34 35 35 37 37 37 39 38 39 40 39 39 39 33 31 43 48 50 52 52 50 49 48 48 46 45 45 45
Wind_Direction
118 121 122 121 117 117 126 130 130 128 124 120 118 115 113 113 112 114 117 121 122 120 118 117 117 118 119 120 120 120 119 118 117 114 112 110 108 106 105 103 100 98 98
122 122 123 124 122 122 130 135 137 136 132 128 124 121 119 118 117 119 121 123 125 125 123 121 122 122 123 124 124 123 122 121 119 116 113 110 108 107 105 102 100 100 98
120 120 122 126 125 125 130 138 142 141 139 135 130 127 126 124 122 124 125 129 130 132 130 128 128 128 128 128 128 127 126 125 123 120 116 113 110 109 106 103 103 101 99
123 120 119 126 127 125 128 136 143 146 143 141 138 134 133 131 130 129 132 135 137 139 139 135 135 135 134 134 133 131 130 129 126 124 119 116 112 110 107 107 106 102 99
129 121 119 124 130 128 130 133 142 147 150 146 145 143 140 139 138 138 141 144 146 147 148 145 143 143 141 141 139 137 136 135 131 127 123 119 115 112 109 108 105 102 98
136 128 125 126 130 134 134 136 144 151 156 156 153 151 149 148 149 148 149 154 157 157 157 156 155 153 152 150 148 145 145 144 142 136 130 125 119 115 112 110 107 103 99
148 139 135 135 135 138 143 146 148 154 160 162 164 163 163 162 162 161 161 162 166 169 169 168 168 166 164 163 161 158 155 156 156 154 148 143 136 131 125 122 117 110 99
164 164 159 155 155 154 157 160 163 166 169 173 178 180 182 181 178 177 178 178 180 182 184 183 182 182 182 181 182 181 179 179 183 186 188 186 181 174 169 168 171 171 180
181 194 200 199 200 196 188 186 187 188 191 192 196 200 200 199 197 196 196 197 197 197 198 198 198 199 201 202 206 207 208 214 217 221 225 223 223 226 234 244 251 259 268
199 221 229 230 231 230 227 222 216 213 213 215 216 218 218 218 217 217 215 214 213 212 211 212 213 214 217 221 223 225 229 233 235 240 243 241 243 246 253 258 263 266 270
240 248 249 247 244 242 242 241 236 234 231 230 232 232 231 232 231 231 230 228 227 225 224 224 226 228 230 234 236 238 241 242 244 248 250 251 252 255 260 262 265 268 271
275 269 264 257 253 248 247 247 247 245 243 242 241 241 241 240 240 240 240 239 238 237 236 235 235 237 238 241 243 244 246 247 249 251 252 254 257 259 262 264 266 268 271
279 277 276 268 260 254 251 250 250 250 250 248 247 247 246 246 245 245 246 245 245 244 244 242 242 242 243 245 247 248 249 250 251 253 253 255 259 263 265 264 265 267 270
282 283 282 277 269 260 257 253 252 251 252 252 252 252 251 250 250 249 249 249 249 248 248 248 248 247 248 249 250 251 251 252 252 253 254 256 259 264 266 265 264 267 269
284 286 286 285 277 267 261 258 255 254 253 253 253 254 254 254 254 254 253 251 251 251 251 252 252 252 252 252 252 253 254 253 253 254 255 257 260 263 265 267 266 267 269
280 283 283 284 284 279 269 262 260 257 256 256 255 254 254 255 256 256 256 255 254 254 253 254 254 254 254 254 255 255 255 255 255 254 256 258 260 263 265 266 267 268 268
278 279 282 282 284 281 277 271 264 261 259 259 259 257 256 255 255 256 256 256 256 256 256 256 256 256 257 257 257 256 257 256 256 256 257 258 260 262 264 266 267 268 269
281 282 281 281 281 280 277 275 271 268 263 261 261 260 259 257 255 255 255 256 257 257 257 257 257 257 258 258 258 258 257 258 258 258 259 259 260 262 264 265 266 267 267
284 285 285 283 281 278 277 274 272 272 268 265 263 263 261 258 256 255 255 256 257 257 258 258 258 258 258 259 260 260 260 259 259 259 259 260 261 262 263 265 265 265 265
288 287 287 286 284 281 277 274 271 269 269 270 268 266 264 261 258 257 257 257 257 257 257 258 258 259 260 261 262 262 262 261 260 260 260 261 261 262 263 264 265 265 265
295 295 294 292 289 284 281 277 272 270 268 268 269 270 267 265 263 259 257 257 257 258 258 258 258 259 260 262 263 264 263 262 261 261 261 261 261 262 263 263 264 265 265
299 300 300 297 295 290 284 281 274 272 269 268 268 268 269 267 264 262 260 258 258 258 258 258 258 260 260 261 262 264 265 264 262 261 261 261 261 262 262 263 264 264 265
304 306 306 305 302 297 291 285 280 275 272 272 270 267 267 267 266 263 263 261 261 260 259 259 259 259 260 260 259 260 264 264 266 263 261 261 261 261 262 264 262 263 266
308 309 312 310 310 307 302 295 290 283 279 276 273 270 267 266 265 265 263 262 263 262 262 262 262 261 261 259 259 259 261 263 264 265 263 262 262 262 263 263 264 265 265
314 315 316 314 314 314 312 307 301 294 286 280 277 274 270 268 266 264 265 263 262 263 263 263 262 265 269 261 260 261 261 262 262 263 264 263 263 263 263 264 264 265 266
319 321 320 318 316 316 317 316 311 304 299 291 284 278 273 269 267 267 264 264 264 262 264 263 264 265 267 270 276 269 266 262 264 262 262 262 263 263 264 264 264 265 265